| time (UTC) | temp C | wind direction | speed KPH | gust KPH | rain 1hr cm | rain 24hr cm | rain mn cm | humidity % | barometer mb |
| 20260906102219 | 20 | 117 | 0.0 | 0.0 | 0.00 | 0.00 | 0.03 | 99 | 1007.7 |
| 20260906101803 | 20 | 117 | 0.0 | 0.0 | 0.00 | 0.00 | 0.03 | 99 | 1007.7 |
| 20260906101334 | 20 | 117 | 0.0 | 0.0 | 0.00 | 0.00 | 0.03 | 99 | 1007.7 |
| 20260906100902 | 20 | 118 | 0.0 | 0.0 | 0.00 | 0.00 | 0.03 | 99 | 1007.7 |
| 20260906100432 | 20 | 118 | 0.0 | 0.0 | 0.00 | 0.00 | 0.03 | 99 | 1007.4 |
| 20260906100016 | 20 | 118 | 0.0 | 0.0 | 0.00 | 0.00 | 0.03 | 99 | 1007.4 |
| 20260906095529 | 20 | 118 | 0.0 | 0.0 | 0.00 | 0.00 | 0.03 | 99 | 1007.7 |
| 20260906095112 | 20 | 118 | 0.0 | 0.0 | 0.00 | 0.00 | 0.03 | 99 | 1007.7 |
| 20260906093738 | 20 | 118 | 0.0 | 0.0 | 0.00 | 0.00 | 0.03 | 99 | 1007.7 |
| 20260906093322 | 20 | 118 | 0.0 | 0.0 | 0.00 | 0.00 | 0.03 | 99 | 1007.7 |
| 20260906092905 | 20 | 134 | 1.6 | 1.6 | 0.00 | 0.00 | 0.03 | 99 | 1007.7 |
| 20260906092450 | 20 | 87 | 0.0 | 0.0 | 0.00 | 0.00 | 0.03 | 99 | 1007.4 |
| 20260906092019 | 20 | 87 | 0.0 | 0.0 | 0.00 | 0.00 | 0.03 | 99 | 1007.4 |
| 20260906091549 | 20 | 87 | 0.0 | 0.0 | 0.00 | 0.00 | 0.03 | 99 | 1007.4 |
| 20260906091133 | 20 | 87 | 0.0 | 0.0 | 0.00 | 0.00 | 0.03 | 99 | 1007.4 |
| 20260906090659 | 20 | 87 | 0.0 | 0.0 | 0.00 | 0.00 | 0.03 | 99 | 1007.4 |
| 20260906090211 | 20 | 87 | 0.0 | 0.0 | 0.00 | 0.00 | 0.03 | 99 | 1007.4 |
| 20260906085739 | 20 | 87 | 0.0 | 0.0 | 0.00 | 0.00 | 0.03 | 99 | 1007.4 |
| 20260906085322 | 20 | 87 | 0.0 | 0.0 | 0.00 | 0.00 | 0.03 | 99 | 1007.4 |
| 20260906084002 | 20 | 87 | 0.0 | 0.0 | 0.00 | 0.00 | 0.03 | 99 | 1007.4 |
| 20260906083531 | 20 | 87 | 0.0 | 0.0 | 0.00 | 0.00 | 0.03 | 99 | 1007.4 |
| 20260906083114 | 20 | 87 | 0.0 | 0.0 | 0.00 | 0.00 | 0.03 | 99 | 1007.4 |
| 20260906082642 | 20 | 87 | 0.0 | 0.0 | 0.00 | 0.00 | 0.03 | 99 | 1007.4 |
| 20260906082211 | 20 | 87 | 0.0 | 0.0 | 0.00 | 0.00 | 0.03 | 99 | 1007.4 |
| 20260906081252 | 20 | 87 | 0.0 | 0.0 | 0.00 | 0.00 | 0.03 | 99 | 1007.4 |
| 20260906080821 | 20 | 87 | 0.0 | 0.0 | 0.00 | 0.00 | 0.03 | 99 | 1007.4 |
| 20260906080352 | 20 | 87 | 0.0 | 0.0 | 0.00 | 0.00 | 0.03 | 99 | 1007.4 |
| 20260906075935 | 20 | 87 | 0.0 | 0.0 | 0.00 | 0.00 | 0.03 | 99 | 1007.4 |
| 20260906075518 | 20 | 87 | 0.0 | 0.0 | 0.00 | 0.00 | 0.03 | 99 | 1007.4 |
| 20260906075046 | 20 | 87 | 0.0 | 0.0 | 0.00 | 0.00 | 0.03 | 99 | 1007.4 |
| 20260906074631 | 20 | 89 | 0.0 | 0.0 | 0.00 | 0.00 | 0.03 | 99 | 1007.7 |
| 20260906074214 | 20 | 88 | 0.0 | 0.0 | 0.00 | 0.00 | 0.03 | 99 | 1007.7 |
| 20260906073325 | 20 | 89 | 0.0 | 0.0 | 0.00 | 0.00 | 0.00 | 99 | 1007.7 |
| 20260906072908 | 20 | 95 | 0.0 | 0.0 | 0.00 | 0.00 | 0.00 | 99 | 1007.7 |
| 20260906072437 | 20 | 95 | 0.0 | 0.0 | 0.00 | 0.00 | 0.00 | 99 | 1007.7 |
| 20260906071549 | 20 | 96 | 0.0 | 0.0 | 0.00 | 0.00 | 0.00 | 99 | 1007.4 |
| 20260906071133 | 20 | 94 | 0.0 | 0.0 | 0.00 | 0.00 | 0.00 | 99 | 1007.4 |
| 20260906065727 | 20 | 87 | 0.0 | 0.0 | 0.00 | 0.00 | 0.00 | 99 | 1007.7 |
| 20260906065310 | 20 | 87 | 0.0 | 0.0 | 0.00 | 0.00 | 0.00 | 99 | 1007.7 |
| 20260906064838 | 20 | 87 | 1.6 | 3.2 | 0.00 | 0.00 | 0.00 | 99 | 1008.1 |
| 20260906063934 | 20 | 62 | 0.0 | 0.0 | 0.00 | 0.00 | 0.00 | 99 | 1007.7 |
| 20260906063518 | 20 | 62 | 0.0 | 0.0 | 0.00 | 0.00 | 0.00 | 99 | 1007.7 |
| 20260906063100 | 20 | 62 | 0.0 | 0.0 | 0.00 | 0.00 | 0.00 | 99 | 1007.7 |
| 20260906062645 | 20 | 62 | 0.0 | 0.0 | 0.00 | 0.00 | 0.00 | 99 | 1007.7 |
| 20260906061323 | 20 | 62 | 0.0 | 0.0 | 0.00 | 0.00 | 0.00 | 99 | 1008.1 |
| 20260906060906 | 20 | 62 | 0.0 | 0.0 | 0.00 | 0.00 | 0.00 | 99 | 1008.1 |
| 20260906060451 | 20 | 62 | 0.0 | 0.0 | 0.00 | 0.00 | 0.00 | 99 | 1007.7 |
| 20260906060035 | 20 | 62 | 0.0 | 0.0 | 0.00 | 0.00 | 0.00 | 99 | 1008.1 |
| 20260906055618 | 20 | 62 | 0.0 | 0.0 | 0.00 | 0.00 | 0.00 | 99 | 1008.1 |
| 20260906055203 | 20 | 62 | 0.0 | 0.0 | 0.00 | 0.00 | 0.00 | 99 | 1008.1 |
| 20260906054748 | 20 | 62 | 0.0 | 0.0 | 0.00 | 0.00 | 0.00 | 99 | 1008.1 |
| 20260906054302 | 20 | 62 | 0.0 | 0.0 | 0.00 | 0.00 | 0.00 | 99 | 1008.1 |
| 20260906053846 | 20 | 62 | 0.0 | 0.0 | 0.00 | 0.00 | 0.00 | 99 | 1008.1 |
| 20260906053416 | 20 | 62 | 0.0 | 0.0 | 0.00 | 0.00 | 0.00 | 99 | 1008.4 |
| 20260906052945 | 20 | 62 | 0.0 | 0.0 | 0.00 | 0.00 | 0.00 | 99 | 1008.4 |
| 20260906052043 | 20 | 62 | 0.0 | 0.0 | 0.00 | 0.00 | 0.00 | 99 | 1008.4 |
| 20260906050712 | 20 | 62 | 0.0 | 0.0 | 0.00 | 0.00 | 0.00 | 99 | 1008.1 |
| 20260906045824 | 20 | 62 | 0.0 | 0.0 | 0.00 | 0.00 | 0.00 | 99 | 1008.4 |
| 20260906045407 | 20 | 62 | 0.0 | 0.0 | 0.00 | 0.00 | 0.00 | 99 | 1008.1 |
| 20260906044951 | 20 | 62 | 0.0 | 0.0 | 0.00 | 0.00 | 0.00 | 99 | 1008.4 |
| 20260906044520 | 20 | 62 | 0.0 | 0.0 | 0.00 | 0.00 | 0.00 | 99 | 1008.4 |
| 20260906044104 | 20 | 62 | 0.0 | 0.0 | 0.00 | 0.00 | 0.00 | 99 | 1008.1 |
| 20260906042718 | 20 | 62 | 0.0 | 0.0 | 0.00 | 0.00 | 0.00 | 99 | 1007.7 |
| 20260906042302 | 20 | 62 | 0.0 | 0.0 | 0.00 | 0.00 | 0.00 | 99 | 1008.4 |
| 20260906041846 | 20 | 62 | 0.0 | 0.0 | 0.00 | 0.00 | 0.00 | 99 | 1008.4 |
| 20260906040928 | 20 | 62 | 0.0 | 0.0 | 0.00 | 0.00 | 0.00 | 99 | 1008.1 |
| 20260906040512 | 20 | 62 | 0.0 | 0.0 | 0.00 | 0.00 | 0.00 | 99 | 1008.1 |
| 20260906040056 | 21 | 62 | 0.0 | 0.0 | 0.00 | 0.00 | 1.45 | 99 | 1008.4 |
| 20260906035624 | 21 | 62 | 0.0 | 0.0 | 0.00 | 0.00 | 1.45 | 99 | 1008.4 |
| 20260906035207 | 21 | 62 | 0.0 | 0.0 | 0.00 | 0.00 | 1.45 | 99 | 1008.1 |
| 20260906034752 | 21 | 62 | 0.0 | 0.0 | 0.00 | 0.00 | 1.45 | 99 | 1008.1 |
| 20260906033820 | 21 | 62 | 0.0 | 0.0 | 0.00 | 0.00 | 1.45 | 99 | 1008.1 |
| 20260906033400 | 21 | 62 | 0.0 | 0.0 | 0.00 | 0.00 | 1.45 | 99 | 1008.1 |
| 20260906032944 | 21 | 62 | 0.0 | 0.0 | 0.00 | 0.00 | 1.45 | 99 | 1008.4 |
| 20260906032513 | 21 | 62 | 0.0 | 0.0 | 0.00 | 0.00 | 1.45 | 99 | 1008.1 |
| 20260906032043 | 21 | 62 | 0.0 | 0.0 | 0.00 | 0.00 | 1.45 | 99 | 1008.4 |
| 20260906031555 | 21 | 62 | 0.0 | 0.0 | 0.00 | 0.00 | 1.45 | 99 | 1008.1 |
| 20260906031140 | 21 | 62 | 0.0 | 0.0 | 0.00 | 0.00 | 1.45 | 99 | 1008.1 |
| 20260906030651 | 21 | 62 | 0.0 | 0.0 | 0.00 | 0.00 | 1.45 | 99 | 1008.4 |
| 20260906030236 | 21 | 62 | 0.0 | 0.0 | 0.00 | 0.00 | 1.45 | 99 | 1008.4 |
| 20260906025346 | 21 | 62 | 0.0 | 0.0 | 0.00 | 0.00 | 1.45 | 99 | 1008.4 |
| 20260906024914 | 21 | 62 | 0.0 | 0.0 | 0.00 | 0.00 | 1.45 | 99 | 1008.4 |
| 20260906024427 | 21 | 62 | 0.0 | 0.0 | 0.00 | 0.00 | 1.45 | 99 | 1008.4 |
| 20260906023954 | 21 | 62 | 0.0 | 0.0 | 0.00 | 0.00 | 1.45 | 99 | 1008.8 |
| 20260906023538 | 21 | 62 | 0.0 | 0.0 | 0.00 | 0.00 | 1.45 | 99 | 1008.4 |
| 20260906023107 | 21 | 62 | 0.0 | 0.0 | 0.00 | 0.00 | 1.45 | 99 | 1008.4 |
| 20260906022636 | 21 | 62 | 0.0 | 0.0 | 0.00 | 0.00 | 1.45 | 99 | 1008.4 |
| 20260906022204 | 21 | 62 | 0.0 | 0.0 | 0.00 | 0.00 | 1.45 | 99 | 1008.1 |
| 20260906021733 | 21 | 62 | 0.0 | 0.0 | 0.00 | 0.00 | 1.45 | 99 | 1008.1 |
| 20260906021316 | 21 | 62 | 0.0 | 0.0 | 0.00 | 0.00 | 1.45 | 99 | 1008.1 |
| 20260906020357 | 21 | 62 | 0.0 | 0.0 | 0.00 | 0.00 | 1.45 | 99 | 1008.1 |
| 20260906015941 | 21 | 62 | 0.0 | 0.0 | 0.00 | 0.00 | 1.45 | 99 | 1008.4 |
| 20260906015509 | 21 | 62 | 0.0 | 0.0 | 0.00 | 0.00 | 1.45 | 99 | 1008.4 |
| 20260906014621 | 21 | 62 | 0.0 | 0.0 | 0.00 | 0.00 | 1.45 | 99 | 1008.4 |
| 20260906014149 | 21 | 62 | 0.0 | 0.0 | 0.00 | 0.00 | 1.45 | 99 | 1008.4 |
| 20260906013733 | 21 | 62 | 0.0 | 0.0 | 0.00 | 0.00 | 1.45 | 99 | 1008.4 |
| 20260906013259 | 21 | 62 | 0.0 | 0.0 | 0.00 | 0.00 | 1.45 | 99 | 1008.1 |
| 20260906012842 | 21 | 62 | 0.0 | 0.0 | 0.00 | 0.00 | 1.45 | 99 | 1008.1 |
| 20260906012411 | 21 | 62 | 0.0 | 0.0 | 0.00 | 0.00 | 1.45 | 99 | 1008.1 |
| 20260906011939 | 22 | 62 | 0.0 | 0.0 | 0.00 | 0.00 | 1.45 | 99 | 1007.7 |
| 20260906011036 | 22 | 62 | 0.0 | 0.0 | 0.00 | 0.00 | 1.45 | 99 | 1008.1 |
| 20260906010133 | 22 | 62 | 0.0 | 0.0 | 0.00 | 0.00 | 1.45 | 98 | 1007.7 |
| 20260906005716 | 22 | 62 | 0.0 | 0.0 | 0.00 | 0.00 | 1.45 | 98 | 1007.7 |
| 20260906005244 | 22 | 62 | 0.0 | 0.0 | 0.00 | 0.00 | 1.45 | 98 | 1008.1 |
| 20260906004813 | 22 | 62 | 0.0 | 0.0 | 0.00 | 0.00 | 1.45 | 98 | 1008.1 |
| 20260906004340 | 22 | 62 | 0.0 | 0.0 | 0.00 | 0.00 | 1.45 | 97 | 1007.4 |
| 20260906003923 | 22 | 62 | 0.0 | 0.0 | 0.00 | 0.00 | 1.45 | 97 | 1007.4 |
| 20260906003506 | 22 | 62 | 0.0 | 0.0 | 0.00 | 0.00 | 1.45 | 97 | 1007.4 |
| 20260906002602 | 22 | 62 | 0.0 | 0.0 | 0.00 | 0.00 | 1.45 | 96 | 1007.4 |
| 20260906002147 | 22 | 62 | 0.0 | 0.0 | 0.00 | 0.00 | 1.45 | 96 | 1007.4 |
| 20260906001729 | 22 | 62 | 0.0 | 0.0 | 0.00 | 0.00 | 1.45 | 95 | 1007.4 |
| 20260906001257 | 23 | 62 | 0.0 | 0.0 | 0.00 | 0.00 | 1.45 | 95 | 1007.4 |
| 20260906000841 | 23 | 62 | 0.0 | 0.0 | 0.00 | 0.00 | 1.45 | 95 | 1007.4 |
| 20260906000411 | 23 | 62 | 0.0 | 0.0 | 0.00 | 0.00 | 1.45 | 94 | 1007.4 |
| 20260905235952 | 23 | 62 | 0.0 | 0.0 | 0.00 | 0.00 | 1.45 | 93 | 1007.7 |
| 20260905235536 | 23 | 62 | 0.0 | 0.0 | 0.00 | 0.00 | 1.45 | 93 | 1007.7 |
| 20260905235047 | 23 | 62 | 0.0 | 0.0 | 0.00 | 0.00 | 1.45 | 92 | 1007.7 |
| 20260905234631 | 23 | 62 | 0.0 | 0.0 | 0.00 | 0.00 | 1.45 | 91 | 1007.7 |
| 20260905234216 | 24 | 62 | 0.0 | 0.0 | 0.00 | 0.00 | 1.45 | 90 | 1007.4 |
| 20260905233801 | 24 | 62 | 0.0 | 0.0 | 0.00 | 0.00 | 1.45 | 89 | 1007.7 |
| 20260905233345 | 24 | 62 | 0.0 | 0.0 | 0.00 | 0.00 | 1.45 | 89 | 1007.4 |
| 20260905231547 | 25 | 62 | 0.0 | 0.0 | 0.00 | 0.00 | 1.45 | 83 | 1007.4 |
| 20260905231119 | 25 | 62 | 0.0 | 0.0 | 0.00 | 0.00 | 1.45 | 82 | 1007.7 |
| 20260905230219 | 26 | 62 | 0.0 | 0.0 | 0.00 | 0.00 | 1.45 | 83 | 1007.7 |
| 20260905225747 | 26 | 62 | 0.0 | 0.0 | 0.00 | 0.00 | 1.45 | 82 | 1007.4 |
| 20260905225317 | 26 | 62 | 0.0 | 0.0 | 0.00 | 0.00 | 1.45 | 82 | 1007.4 |
| 20260905224846 | 26 | 55 | 0.0 | 0.0 | 0.00 | 0.00 | 1.45 | 80 | 1007.4 |
| 20260905224429 | 26 | 55 | 0.0 | 0.0 | 0.00 | 0.00 | 1.45 | 78 | 1007.4 |
| 20260905224010 | 26 | 55 | 0.0 | 0.0 | 0.00 | 0.00 | 1.45 | 78 | 1007.4 |
| 20260905223539 | 27 | 55 | 0.0 | 0.0 | 0.00 | 0.00 | 1.45 | 77 | 1007.4 |
| 20260905223125 | 27 | 55 | 0.0 | 0.0 | 0.00 | 0.00 | 1.45 | 76 | 1007.4 |
| 20260905222710 | 27 | 55 | 0.0 | 0.0 | 0.00 | 0.00 | 1.45 | 75 | 1007.4 |
| 20260905222255 | 27 | 55 | 0.0 | 0.0 | 0.00 | 0.00 | 1.45 | 74 | 1007.4 |
| 20260905221839 | 27 | 55 | 0.0 | 0.0 | 0.00 | 0.00 | 1.45 | 72 | 1007.4 |
| 20260905220938 | 28 | 56 | 0.0 | 0.0 | 0.00 | 0.00 | 1.45 | 70 | 1007.4 |
| 20260905220520 | 28 | 56 | 0.0 | 0.0 | 0.00 | 0.00 | 1.45 | 70 | 1007.4 |
| 20260905220046 | 28 | 53 | 0.0 | 0.0 | 0.00 | 0.00 | 1.45 | 69 | 1007.4 |
| 20260905215630 | 29 | 53 | 0.0 | 0.0 | 0.00 | 0.00 | 1.45 | 65 | 1007.4 |
| 20260905215159 | 29 | 53 | 0.0 | 0.0 | 0.00 | 0.00 | 1.45 | 65 | 1007.7 |
| 20260905214312 | 30 | 48 | 1.6 | 1.6 | 0.00 | 0.00 | 1.45 | 66 | 1007.4 |
| 20260905212943 | 30 | 94 | 0.0 | 0.0 | 0.00 | 0.00 | 1.45 | 63 | 1007.4 |
| 20260905212044 | 31 | 94 | 0.0 | 0.0 | 0.00 | 0.00 | 1.45 | 56 | 1007.4 |
| 20260905211614 | 31 | 168 | 0.0 | 1.6 | 0.00 | 0.00 | 1.45 | 62 | 1007.4 |
| 20260905211158 | 31 | 134 | 3.2 | 3.2 | 0.00 | 0.00 | 1.45 | 56 | 1007.4 |
| 20260905210743 | 31 | 109 | 0.0 | 0.0 | 0.00 | 0.00 | 1.45 | 62 | 1007.1 |
| 20260905204925 | 32 | 50 | 0.0 | 0.0 | 0.00 | 0.00 | 1.45 | 60 | 1007.1 |
| 20260905204510 | 32 | 80 | 0.0 | 1.6 | 0.00 | 0.00 | 1.45 | 55 | 1007.1 |
| 20260905204053 | 31 | 124 | 0.0 | 0.0 | 0.00 | 0.00 | 1.45 | 61 | 1006.7 |
| 20260905203637 | 31 | 124 | 0.0 | 0.0 | 0.00 | 0.00 | 1.45 | 61 | 1006.7 |
| 20260905203223 | 31 | 106 | 1.6 | 1.6 | 0.00 | 0.00 | 1.45 | 60 | 1007.1 |
| 20260905202807 | 31 | 86 | 1.6 | 3.2 | 0.00 | 0.00 | 1.45 | 61 | 1007.4 |
| 20260905202353 | 31 | 55 | 0.0 | 0.0 | 0.00 | 0.00 | 1.45 | 67 | 1007.1 |
| 20260905201939 | 31 | 69 | 3.2 | 3.2 | 0.00 | 0.00 | 1.45 | 67 | 1007.4 |
| 20260905201524 | 30 | 113 | 0.0 | 1.6 | 0.00 | 0.00 | 1.45 | 65 | 1007.1 |
| 20260905201053 | 30 | 86 | 0.0 | 0.0 | 0.00 | 0.00 | 1.45 | 68 | 1006.7 |
| 20260905200154 | 30 | 114 | 1.6 | 1.6 | 0.00 | 0.00 | 1.45 | 66 | 1007.4 |
| 20260905195724 | 30 | 177 | 3.2 | 3.2 | 0.00 | 0.00 | 1.45 | 65 | 1007.1 |
| 20260905195307 | 30 | 65 | 1.6 | 1.6 | 0.00 | 0.00 | 1.45 | 72 | 1007.4 |
| 20260905194404 | 30 | 197 | 1.6 | 3.2 | 0.00 | 0.00 | 1.45 | 73 | 1007.4 |
| 20260905193500 | 30 | 188 | 3.2 | 4.8 | 0.00 | 0.00 | 1.45 | 67 | 1007.7 |
| 20260905193043 | 30 | 173 | 1.6 | 3.2 | 0.00 | 0.00 | 1.45 | 69 | 1007.7 |
| 20260905192613 | 30 | 261 | 1.6 | 3.2 | 0.00 | 0.00 | 1.45 | 67 | 1007.7 |
| 20260905192142 | 30 | 95 | 0.0 | 0.0 | 0.00 | 0.00 | 1.45 | 67 | 1007.7 |
| 20260905191726 | 30 | 189 | 6.4 | 6.4 | 0.00 | 0.00 | 1.45 | 68 | 1007.7 |
| 20260905191255 | 30 | 55 | 0.0 | 0.0 | 0.00 | 0.00 | 1.45 | 68 | 1008.1 |
| 20260905190840 | 30 | 55 | 0.0 | 0.0 | 0.00 | 0.00 | 1.45 | 68 | 1008.1 |
| 20260905190408 | 29 | 40 | 0.0 | 1.6 | 0.00 | 0.00 | 1.45 | 71 | 1008.1 |
| 20260905185937 | 30 | 154 | 1.6 | 1.6 | 0.00 | 0.00 | 1.45 | 71 | 1008.4 |
| 20260905185522 | 28 | 72 | 0.0 | 0.0 | 0.00 | 0.00 | 1.45 | 71 | 1008.4 |
| 20260905185051 | 28 | 68 | 0.0 | 1.6 | 0.00 | 0.00 | 1.45 | 72 | 1008.8 |
| 20260905184637 | 28 | 138 | 0.0 | 0.0 | 0.00 | 0.00 | 1.45 | 73 | 1008.8 |
| 20260905184222 | 28 | 121 | 1.6 | 3.2 | 0.00 | 0.00 | 1.45 | 72 | 1009.1 |
| 20260905183735 | 27 | 112 | 0.0 | 1.6 | 0.00 | 0.00 | 1.45 | 77 | 1008.8 |
| 20260905183319 | 27 | 99 | 0.0 | 1.6 | 0.00 | 0.00 | 1.45 | 77 | 1009.1 |
| 20260905182900 | 27 | 66 | 0.0 | 0.0 | 0.00 | 0.00 | 1.45 | 77 | 1009.1 |
| 20260905182014 | 27 | 158 | 1.6 | 1.6 | 0.00 | 0.00 | 1.45 | 78 | 1009.1 |
| 20260905181554 | 27 | 93 | 0.0 | 0.0 | 0.00 | 0.00 | 1.45 | 75 | 1009.4 |
| 20260905181123 | 27 | 127 | 1.6 | 1.6 | 0.00 | 0.00 | 1.45 | 77 | 1009.4 |
| 20260905180706 | 27 | 143 | 3.2 | 4.8 | 0.00 | 0.00 | 1.45 | 79 | 1009.4 |
| 20260905175804 | 26 | 59 | 0.0 | 0.0 | 0.00 | 0.00 | 1.45 | 82 | 1009.4 |
| 20260905175349 | 26 | 212 | 1.6 | 3.2 | 0.00 | 0.00 | 1.45 | 82 | 1009.4 |
| 20260905174934 | 26 | 31 | 1.6 | 3.2 | 0.00 | 0.00 | 1.45 | 84 | 1009.4 |
| 20260905174050 | 25 | 81 | 3.2 | 3.2 | 0.00 | 0.00 | 1.45 | 87 | 1009.8 |
| 20260905173634 | 25 | 102 | 0.0 | 0.0 | 0.00 | 0.00 | 1.45 | 91 | 1009.8 |
| 20260905173204 | 24 | 204 | 1.6 | 1.6 | 0.00 | 0.00 | 1.45 | 89 | 1009.4 |
| 20260905172747 | 23 | 163 | 0.0 | 1.6 | 0.00 | 0.00 | 1.45 | 92 | 1009.8 |
| 20260905171900 | 22 | 47 | 0.0 | 1.6 | 0.00 | 0.00 | 1.45 | 99 | 1009.8 |
| 20260905171444 | 22 | 130 | 0.0 | 1.6 | 0.00 | 0.00 | 1.45 | 99 | 1009.8 |
| 20260905170542 | 22 | 96 | 0.0 | 0.0 | 0.00 | 0.00 | 1.45 | 99 | 1009.8 |
| 20260905170127 | 22 | 92 | 1.6 | 1.6 | 0.00 | 0.00 | 1.45 | 99 | 1009.8 |
| 20260905165711 | 21 | 119 | 0.0 | 0.0 | 0.00 | 0.00 | 1.45 | 99 | 1009.8 |
| 20260905165253 | 21 | 120 | 0.0 | 0.0 | 0.00 | 0.00 | 1.45 | 99 | 1010.1 |
| 20260905164836 | 21 | 100 | 0.0 | 0.0 | 0.00 | 0.00 | 1.45 | 99 | 1010.1 |
| 20260905164422 | 21 | 96 | 0.0 | 0.0 | 0.00 | 0.00 | 1.45 | 99 | 1010.1 |
| 20260905163949 | 21 | 96 | 0.0 | 0.0 | 0.00 | 0.00 | 1.45 | 99 | 1010.1 |
| 20260905163518 | 20 | 98 | 0.0 | 0.0 | 0.00 | 0.00 | 1.45 | 99 | 1010.8 |
| 20260905163048 | 20 | 98 | 0.0 | 0.0 | 0.00 | 0.00 | 1.45 | 99 | 1010.4 |
| 20260905162632 | 20 | 102 | 0.0 | 0.0 | 0.00 | 0.00 | 1.45 | 99 | 1010.8 |
| 20260905162200 | 20 | 96 | 0.0 | 0.0 | 0.00 | 0.00 | 1.45 | 99 | 1010.4 |
| 20260905161743 | 20 | 124 | 0.0 | 0.0 | 0.00 | 0.00 | 1.45 | 99 | 1010.8 |
| 20260905161327 | 20 | 87 | 0.0 | 0.0 | 0.00 | 0.00 | 1.45 | 99 | 1010.4 |
| 20260905160856 | 20 | 87 | 0.0 | 0.0 | 0.00 | 0.00 | 1.45 | 99 | 1010.8 |
| 20260905160442 | 20 | 78 | 0.0 | 0.0 | 0.00 | 0.00 | 1.42 | 99 | 1010.8 |
| 20260905160011 | 20 | 83 | 0.0 | 0.0 | 0.00 | 0.00 | 1.42 | 99 | 1011.1 |
| 20260905155541 | 20 | 83 | 0.0 | 0.0 | 0.00 | 0.00 | 1.42 | 99 | 1011.1 |
| 20260905154209 | 20 | 68 | 0.0 | 0.0 | 0.00 | 0.00 | 1.42 | 99 | 1011.5 |
| 20260905153736 | 20 | 80 | 1.6 | 1.6 | 0.00 | 0.00 | 1.42 | 99 | 1011.8 |
| 20260905153318 | 20 | 65 | 0.0 | 0.0 | 0.00 | 0.00 | 1.42 | 99 | 1011.8 |
| 20260905152901 | 20 | 68 | 1.6 | 1.6 | 0.00 | 0.00 | 1.42 | 99 | 1011.8 |
| 20260905152444 | 20 | 99 | 0.0 | 0.0 | 0.00 | 0.00 | 1.42 | 99 | 1011.8 |
| 20260905152027 | 20 | 102 | 0.0 | 0.0 | 0.00 | 0.00 | 1.40 | 99 | 1011.8 |
| 20260905151555 | 20 | 80 | 0.0 | 0.0 | 0.00 | 0.00 | 1.40 | 99 | 1012.1 |
| 20260905151140 | 20 | 81 | 0.0 | 0.0 | 0.00 | 0.00 | 1.32 | 99 | 1011.8 |
| 20260905150722 | 20 | 80 | 0.0 | 0.0 | 0.00 | 0.00 | 1.24 | 99 | 1012.1 |
| 20260905150305 | 20 | 80 | 0.0 | 0.0 | 0.00 | 0.00 | 1.24 | 99 | 1012.1 |
| 20260905145849 | 20 | 83 | 0.0 | 0.0 | 0.00 | 0.00 | 1.24 | 99 | 1012.5 |
| 20260905145432 | 20 | 81 | 0.0 | 0.0 | 0.00 | 0.00 | 1.22 | 99 | 1012.5 |
| 20260905145017 | 20 | 92 | 0.0 | 0.0 | 0.00 | 0.00 | 1.19 | 99 | 1012.1 |
| 20260905144559 | 20 | 203 | 3.2 | 3.2 | 0.00 | 0.00 | 1.12 | 99 | 1011.8 |
| 20260905144144 | 20 | 156 | 1.6 | 3.2 | 0.00 | 0.00 | 0.97 | 99 | 1011.8 |
| 20260905143726 | 24 | 98 | 3.2 | 6.4 | 0.00 | 0.00 | 0.00 | 91 | 1011.1 |
| 20260905143256 | 24 | 98 | 3.2 | 6.4 | 0.00 | 0.00 | 0.00 | 91 | 1011.1 |
| 20260905142823 | 26 | 35 | 0.0 | 0.0 | 0.00 | 0.00 | 0.00 | 87 | 1010.4 |
| 20260905142407 | 26 | 128 | 0.0 | 0.0 | 0.00 | 0.00 | 0.00 | 86 | 1009.4 |
| 20260905141948 | 26 | 140 | 0.0 | 0.0 | 0.00 | 0.00 | 0.00 | 86 | 1009.8 |
| 20260905141533 | 26 | 99 | 0.0 | 0.0 | 0.00 | 0.00 | 0.00 | 85 | 1009.4 |
| 20260905140631 | 24 | 99 | 0.0 | 0.0 | 0.00 | 0.00 | 0.00 | 89 | 1008.8 |
| 20260905140215 | 23 | 123 | 0.0 | 0.0 | 0.00 | 0.00 | 0.00 | 92 | 1009.4 |
| 20260905135756 | 24 | 113 | 0.0 | 0.0 | 0.00 | 0.00 | 0.00 | 90 | 1009.4 |
| 20260905135338 | 24 | 94 | 0.0 | 0.0 | 0.00 | 0.00 | 0.00 | 91 | 1009.8 |
| 20260905134451 | 23 | 94 | 0.0 | 0.0 | 0.00 | 0.00 | 0.00 | 92 | 1010.1 |
| 20260905134033 | 23 | 93 | 0.0 | 0.0 | 0.00 | 0.00 | 0.00 | 93 | 1010.1 |
| 20260905133600 | 23 | 94 | 0.0 | 0.0 | 0.00 | 0.00 | 0.00 | 94 | 1010.1 |
| 20260905133129 | 22 | 93 | 0.0 | 0.0 | 0.00 | 0.00 | 0.00 | 96 | 1010.1 |
| 20260905132711 | 22 | 93 | 0.0 | 0.0 | 0.00 | 0.00 | 0.00 | 97 | 1010.1 |
| 20260905131339 | 21 | 111 | 0.0 | 0.0 | 0.00 | 0.00 | 0.00 | 99 | 1010.1 |
| 20260905130922 | 21 | 126 | 0.0 | 0.0 | 0.00 | 0.00 | 0.00 | 99 | 1010.1 |
| 20260905130504 | 20 | 127 | 0.0 | 0.0 | 0.00 | 0.00 | 0.00 | 99 | 1010.1 |
| 20260905130032 | 20 | 126 | 0.0 | 0.0 | 0.00 | 0.00 | 0.00 | 99 | 1010.1 |
| 20260905125613 | 20 | 128 | 0.0 | 0.0 | 0.00 | 0.00 | 0.00 | 99 | 1010.4 |
| 20260905124254 | 20 | 113 | 0.0 | 0.0 | 0.00 | 0.00 | 0.00 | 99 | 1010.4 |
| 20260905123408 | 20 | 82 | 0.0 | 0.0 | 0.00 | 0.00 | 0.00 | 99 | 1010.4 |
| 20260905122951 | 20 | 80 | 0.0 | 0.0 | 0.00 | 0.00 | 0.00 | 99 | 1010.1 |
| 20260905122045 | 20 | 80 | 0.0 | 0.0 | 0.00 | 0.00 | 0.00 | 99 | 1010.1 |
| 20260905121631 | 20 | 80 | 0.0 | 0.0 | 0.00 | 0.00 | 0.00 | 99 | 1010.1 |
| 20260905121200 | 20 | 80 | 0.0 | 0.0 | 0.00 | 0.00 | 0.00 | 99 | 1010.1 |
| 20260905120258 | 20 | 80 | 0.0 | 0.0 | 0.00 | 0.00 | 0.00 | 99 | 1010.1 |
| 20260905114922 | 19 | 80 | 0.0 | 0.0 | 0.00 | 0.00 | 0.00 | 99 | 1009.8 |
| 20260905114452 | 19 | 80 | 0.0 | 0.0 | 0.00 | 0.00 | 0.00 | 99 | 1010.1 |
| 20260905114038 | 19 | 80 | 0.0 | 0.0 | 0.00 | 0.00 | 0.00 | 99 | 1010.1 |
| 20260905113622 | 19 | 80 | 0.0 | 0.0 | 0.00 | 0.00 | 0.00 | 99 | 1010.1 |
| 20260905113136 | 19 | 80 | 0.0 | 0.0 | 0.00 | 0.00 | 0.00 | 99 | 1010.1 |
| 20260905112706 | 19 | 80 | 0.0 | 0.0 | 0.00 | 0.00 | 0.00 | 99 | 1009.8 |
| 20260905112251 | 19 | 80 | 0.0 | 0.0 | 0.00 | 0.00 | 0.00 | 99 | 1009.8 |
| 20260905111821 | 19 | 80 | 0.0 | 0.0 | 0.00 | 0.00 | 0.00 | 99 | 1009.4 |
| 20260905111406 | 19 | 80 | 0.0 | 0.0 | 0.00 | 0.00 | 0.00 | 99 | 1009.4 |
| 20260905110949 | 19 | 80 | 0.0 | 0.0 | 0.00 | 0.00 | 0.00 | 99 | 1009.4 |
| 20260905110519 | 19 | 80 | 0.0 | 0.0 | 0.00 | 0.00 | 0.00 | 99 | 1009.8 |
| 20260905110105 | 19 | 80 | 0.0 | 0.0 | 0.00 | 0.00 | 0.00 | 99 | 1009.1 |
| 20260905105634 | 19 | 80 | 0.0 | 0.0 | 0.00 | 0.00 | 0.00 | 99 | 1009.4 |
| 20260905105147 | 19 | 80 | 0.0 | 0.0 | 0.00 | 0.00 | 0.00 | 99 | 1009.4 |
| 20260905104731 | 19 | 80 | 0.0 | 0.0 | 0.00 | 0.00 | 0.00 | 99 | 1009.4 |
| 20260905104315 | 19 | 80 | 0.0 | 0.0 | 0.00 | 0.00 | 0.00 | 99 | 1009.4 |
| 20260905103859 | 19 | 80 | 0.0 | 0.0 | 0.00 | 0.00 | 0.00 | 99 | 1009.4 |
| 20260905103427 | 19 | 80 | 0.0 | 0.0 | 0.00 | 0.00 | 0.00 | 99 | 1009.4 |
| 20260905103012 | 19 | 80 | 0.0 | 0.0 | 0.00 | 0.00 | 0.00 | 99 | 1009.4 |
| 20260905102542 | 19 | 80 | 0.0 | 0.0 | 0.00 | 0.00 | 0.00 | 99 | 1009.4 |